Regional Weather Roundup
Issued by NWS Cleveland, OH

Home | Current Version | Previous Version | Graphics & Text | Print | Product List | Glossary On
Versions: 1 2 3 4 5 6 7 8 9 10 11 12 13 14 15 16 17 18 19 20 21 22 23 24 25 26 27 28 29 30 31 32 33 34 35 36 37 38 39 40 41 42 43 44 45 46 47 48 49 50
000
ASUS41 KCLE 020810
RWRCLE
OHIO REGIONAL WEATHER ROUNDUP
NATIONAL WEATHER SERVICE WILMINGTON, OH
400 AM EDT THU JUL 02 2015

NOTE: "FAIR" INDICATES FEW OR NO CLOUDS BELOW 12,000 FEET WITH NO
SIGNIFICANT WEATHER AND/OR OBSTRUCTIONS TO VISIBILITY.

OHZ001>008-015>018-024>027-034-035-043-044-020900-
   NORTHWEST OHIO

CITY           SKY/WX    TMP DP  RH WIND       PRES   REMARKS
DEFIANCE       MOCLDY    61  56  83 NE5       29.95S
FINDLAY        MOCLDY    64  59  83 NE6       29.93S
TOLEDO EXPRESS CLOUDY    60  56  86 CALM      29.95S
TOLEDO EXEC    PTCLDY    64  59  83 NE5       29.96S
LIMA           MOCLDY    61  58  90 NE3       29.93F
$$

OHZ009>014-019>023-028>033-038-089-020900-
   NORTHEAST OHIO

CITY           SKY/WX    TMP DP  RH WIND       PRES   REMARKS
CLE-HOPKINS    CLOUDY    65  59  81 NE6       29.95F
CLE-LAKEFRONT  MOCLDY    65  59  81 E3        29.93S
CUY CO. ARPT   NOT AVBL
LORAIN-ELYRIA  CLOUDY    62  59  90 NE3       29.95F
ASHTABULA      CLOUDY    58  57  97 CALM      29.95F
AKRON-CANTON   MOCLDY    61  57  87 NE3       29.93F FOG
WOOSTER        MOCLDY    59  57  93 N3        29.94F FOG
MANSFIELD      PTCLDY    61  58  90 CALM      29.94F
YOUNGSTOWN     CLOUDY    61  58  90 CALM      29.93F
$$

OHZ042-051>053-060>062-070>072-077>081-020900-
  SOUTHWEST OHIO

CITY           SKY/WX    TMP DP  RH WIND       PRES   REMARKS
CINC-COVINGTON CLOUDY    69  66  90 CALM      29.90F FOG
CINC-LUNKEN    CLOUDY    66  66 100 CALM      29.90F
HAMILTON       CLOUDY    70  66  87 NE5       29.90F
DAYTON         PTCLDY    65  60  84 N6        29.93F
WRIGHT-PAT AFB PTCLDY    65  62  89 N3        29.91F
DAYTON GENERAL MOCLDY    65  62  90 NE6       29.90F
WILMINGTON     MOCLDY    63  61  93 E3        29.91F
$$

OHZ036-037-039>041-045>050-054>059-063>069-073>076-082>088-020900-
  CENTRAL AND SOUTHEAST OHIO

CITY           SKY/WX    TMP DP  RH WIND       PRES   REMARKS
COLUMBUS       MOCLDY    63  60  90 N5        29.92S
OSU AIRPORT    PTCLDY    62  60  93 CALM      29.93R
BOLTON FIELD   NOT AVBL
RICKENBACK AFB NOT AVBL
NEWARK         MOCLDY    60  58  92 CALM      29.93R
MARION         PTCLDY    61  59  93 CALM      29.94S
LANCASTER      PTCLDY    59  57  93 CALM      29.93R FOG
ZANESVILLE     MOCLDY    59  57  93 CALM      29.93R FOG
NEW PHILLY     MOCLDY    57  56  96 CALM      29.93F FOG
$$



USA.gov is the U.S. government's official web portal to all federal, state and local government web resources and services.